Wind_Speed
26 25 24 24 24 24 23 22 22 23 23 24 24 24 24 24 24 23 23 23 22 23 25 27 29 30 31 33 34 35 36 36 36 36 36 37 37 37 37 38 39 40
26 26 25 25 25 25 25 24 22 21 21 22 23 23 23 23 23 23 23 24 24 24 26 27 29 30 31 32 33 35 36 37 37 37 37 38 38 38 38 38 38 40
26 26 26 27 27 27 27 25 24 22 20 20 21 22 23 24 24 24 25 25 26 26 27 28 30 32 33 33 35 36 38 38 39 39 40 40 40 40 39 38 38 40
25 26 26 27 27 27 27 25 24 23 22 20 20 21 22 24 25 26 26 27 27 27 27 29 30 33 35 36 38 39 40 41 41 41 42 43 42 42 41 40 40 40
24 25 26 26 25 25 25 25 24 23 22 21 21 21 22 23 25 26 27 27 27 28 28 28 29 31 33 36 38 41 42 43 43 42 43 44 43 43 43 42 42 42
24 25 25 24 24 24 24 24 24 23 22 21 21 21 22 23 24 25 27 28 28 28 28 28 28 29 31 33 35 37 40 42 43 43 44 44 44 44 44 44 44 44
24 24 24 23 23 22 22 22 22 21 20 20 20 21 22 23 24 25 27 28 29 29 29 29 28 28 29 31 33 35 36 38 40 42 44 44 44 44 44 45 45 46
24 24 24 24 22 22 22 21 20 19 19 18 19 20 21 22 23 24 25 26 27 28 27 27 26 27 28 30 32 34 36 37 37 39 42 43 43 43 44 44 45 45
24 25 25 24 23 22 21 20 18 18 18 18 19 20 20 21 21 21 21 22 23 23 24 24 25 27 28 29 30 32 34 36 37 37 39 41 43 43 43 43 43 44
24 25 25 24 23 21 20 20 19 19 19 19 19 20 21 21 21 20 20 20 20 21 22 24 27 28 30 31 32 33 34 35 35 35 36 38 40 41 41 42 42 42
24 24 25 24 23 21 21 21 21 21 21 21 20 20 21 22 21 21 21 20 19 21 22 24 27 29 30 32 33 33 34 34 33 32 33 35 37 38 39 39 41 41
24 23 23 23 22 21 20 21 21 21 21 21 20 20 21 23 24 23 22 19 18 21 23 25 26 27 28 29 30 30 30 31 31 30 30 33 35 36 36 37 38 39
22 22 22 22 21 20 20 20 21 20 20 20 20 21 22 24 25 24 21 18 18 21 24 26 26 25 26 27 30 31 30 28 29 29 30 32 33 33 33 34 35 36
22 22 22 21 21 20 19 20 20 20 20 19 20 21 22 23 24 23 20 19 20 23 24 25 25 25 26 27 29 31 30 27 27 29 30 30 30 30 31 33 33 34
21 22 21 21 20 19 19 19 20 20 19 19 20 21 21 22 23 23 22 21 22 22 22 23 25 26 27 27 27 27 27 26 26 28 30 31 31 30 31 32 32 32
21 22 21 21 20 19 18 18 18 19 19 19 19 20 21 22 22 23 23 23 22 22 22 24 25 26 27 27 28 27 26 25 25 26 29 32 34 33 31 29 29 29
22 22 21 21 20 19 18 18 17 18 18 18 19 19 20 21 22 22 22 23 22 22 22 24 24 26 28 29 31 32 30 27 26 26 26 28 30 31 30 28 27 28
24 23 22 21 21 20 20 19 18 18 19 19 19 19 20 21 21 21 22 23 22 21 22 23 24 26 28 30 33 35 35 31 28 27 27 26 25 27 28 28 29 30
24 23 22 22 22 22 22 22 21 20 20 21 20 19 20 20 20 21 22 23 22 21 21 23 24 25 27 31 34 35 38 37 29 26 27 27 25 25 26 28 29 31
23 23 23 23 23 23 24 24 23 21 21 21 20 19 19 19 19 20 21 22 22 22 21 22 23 24 26 30 34 35 39 40 31 24 25 26 26 25 25 26 27 29
21 21 22 23 24 24 24 24 24 22 21 20 18 18 19 19 19 20 21 22 22 22 21 21 22 24 25 28 32 34 38 41 33 23 23 23 20 21 22 23 24 26
20 20 22 24 25 25 24 24 23 21 20 19 18 17 18 19 20 21 22 23 23 22 21 20 21 23 24 26 30 31 35 40 35 23 21 23 18 12 15 16 18 22
20 21 23 25 25 24 23 22 22 21 19 19 18 18 18 19 20 21 23 23 23 22 21 19 20 22 23 25 27 29 33 38 38 25 18 22 24 12 10 13 15 17
20 21 23 24 23 22 21 20 20 20 19 19 19 19 20 20 20 21 22 23 23 22 20 18 19 21 22 23 25 28 30 34 39 33 20 19 24 18 9 13 15 13
21 22 23 23 22 21 20 20 20 20 20 20 20 20 20 20 20 20 21 21 21 21 19 18 18 20 21 22 22 25 28 31 36 38 30 21 21 21 14 12 12 13
20 22 23 23 22 20 20 20 20 20 21 21 21 21 20 20 20 20 20 19 19 19 18 18 18 19 20 21 21 21 25 29 31 36 37 29 21 19 16 12 11 12
Wind_Direction
320 320 319 318 319 318 316 312 305 300 295 292 290 288 285 283 280 278 278 277 273 271 270 267 264 263 263 265 265 263 262 262 263 262 263 262 262 261 260 259 258 258
322 322 322 322 323 323 322 319 314 307 299 294 290 289 287 285 282 278 274 272 270 267 266 265 264 263 262 262 262 262 261 261 261 260 260 260 260 260 260 260 259 259
322 323 323 325 326 326 325 323 319 314 306 298 292 290 288 287 285 283 279 275 272 269 267 266 266 266 265 264 263 261 261 261 260 260 261 260 260 259 258 258 258 258
321 321 323 326 328 328 327 325 321 317 311 305 298 293 290 288 287 285 283 280 278 276 273 271 269 269 269 268 267 265 263 262 262 262 262 262 262 261 259 256 256 256
318 319 322 326 328 327 327 325 322 317 312 308 302 296 292 288 286 285 285 284 282 280 277 275 273 271 271 271 270 268 266 264 263 262 263 263 262 262 259 257 256 255
316 318 322 326 327 326 325 323 320 316 313 309 304 300 296 293 291 289 288 288 287 286 284 281 278 275 273 273 272 271 269 266 263 261 261 261 261 261 260 258 257 256
316 319 323 326 326 324 323 321 319 318 316 314 310 305 301 299 298 295 293 290 289 288 288 285 283 281 279 278 277 276 273 269 265 262 260 260 259 259 260 259 258 256
318 321 325 328 327 324 323 322 323 323 322 321 318 314 311 309 307 305 300 294 290 289 288 287 287 286 284 283 282 280 277 273 269 266 263 262 260 259 259 259 259 257
321 324 328 330 329 325 323 323 323 324 324 325 325 324 322 319 316 316 313 305 299 296 293 291 291 292 293 291 290 286 281 275 271 268 265 264 262 261 260 259 258 257
323 326 330 332 330 326 322 319 317 318 320 322 325 327 327 324 320 318 317 314 309 304 299 296 296 297 299 298 297 295 289 281 274 269 267 265 263 262 261 259 258 257
323 327 330 331 330 325 320 316 313 313 315 318 322 327 331 330 323 316 314 315 317 316 313 308 303 301 301 300 301 300 295 288 280 272 267 266 264 261 260 259 257 256
323 327 329 330 329 325 319 315 313 314 316 319 323 328 332 332 329 324 317 314 321 326 323 317 310 305 303 301 300 300 295 287 283 276 269 266 264 261 260 258 256 255
322 326 328 328 328 325 319 315 313 313 316 320 324 328 331 331 332 333 325 318 327 333 329 323 318 313 309 302 297 299 299 289 281 277 272 268 267 264 260 258 257 255
323 325 326 326 326 324 318 313 310 311 314 318 322 326 329 330 332 335 333 329 334 337 333 330 329 328 325 316 306 302 302 296 282 275 272 269 268 268 265 261 258 257
321 323 323 323 325 324 319 312 309 309 312 315 320 323 327 329 330 332 332 331 334 338 337 333 335 341 340 334 324 313 305 300 288 277 273 268 267 272 273 265 259 259
316 319 320 321 323 325 322 315 309 308 309 312 317 321 324 327 328 328 328 329 332 338 338 333 336 344 346 343 338 330 318 307 297 286 277 271 271 277 279 269 261 262
309 312 316 318 321 325 327 321 312 308 307 309 313 318 321 324 325 326 326 328 332 336 336 336 338 341 342 342 342 341 334 321 309 298 286 276 272 274 273 267 262 264
304 305 310 315 317 321 326 326 320 312 307 308 312 317 321 323 324 327 329 330 333 335 335 337 338 339 340 341 342 344 343 333 317 306 297 285 275 271 269 266 264 265
303 303 307 314 316 318 321 323 324 320 312 310 315 320 323 324 325 328 331 332 334 335 335 334 335 336 339 341 341 342 344 339 324 310 304 294 283 278 274 270 269 268
305 306 309 313 315 317 319 319 322 322 318 317 320 324 325 326 326 328 330 332 334 335 336 334 333 335 338 340 340 341 344 342 331 317 315 305 289 284 280 274 273 272
309 311 313 314 314 316 317 316 318 321 321 321 323 325 325 326 327 328 328 330 332 333 334 332 331 334 336 338 340 341 343 345 337 325 330 325 298 283 280 276 277 277
311 315 318 317 316 315 314 314 316 320 321 321 322 322 324 326 327 326 326 329 331 331 332 330 329 333 335 336 341 342 343 346 344 331 332 346 341 301 281 283 283 280
313 317 320 319 316 314 313 313 317 321 322 322 322 321 323 325 325 325 325 329 331 330 330 329 327 331 335 336 341 343 343 347 350 342 327 348 3 351 288 299 303 291
315 319 321 320 316 313 314 316 321 325 326 325 325 324 325 325 325 326 328 329 330 329 328 328 326 329 334 337 340 344 344 345 352 354 340 336 357 7 332 312 323 333
316 319 320 318 314 313 317 321 325 328 329 328 328 327 326 327 328 331 331 330 329 329 328 328 328 329 333 338 340 343 345 345 350 358 357 344 348 4 355 324 326 347
315 317 317 315 314 315 319 324 327 329 329 329 329 329 329 331 334 334 333 332 333 336 335 333 331 330 331 337 341 342 345 347 349 355 2 1 355 355 350 335 336 340
Height
3154 3153 3151 3149 3147 3145 3143 3142 3140 3139 3137 3136 3135 3134 3134 3133 3133 3132 3132 3131 3131 3131 3130 3130 3130 3130 3130 3129 3129 3129 3130 3131 3132 3133 3133 3132 3133 3134 3134 3135 3136 3137
3151 3149 3147 3146 3144 3142 3140 3139 3138 3136 3135 3134 3133 3132 3131 3130 3130 3129 3129 3128 3128 3128 3127 3127 3126 3126 3126 3126 3126 3125 3126 3126 3127 3128 3128 3127 3128 3128 3129 3130 3131 3132
3148 3146 3144 3142 3141 3139 3137 3136 3135 3133 3133 3131 3130 3129 3128 3127 3126 3126 3125 3125 3124 3124 3124 3124 3123 3122 3122 3122 3121 3121 3121 3121 3122 3123 3122 3122 3123 3123 3124 3125 3126 3126
3146 3144 3142 3140 3138 3136 3135 3133 3132 3130 3129 3128 3127 3126 3125 3124 3123 3122 3122 3121 3121 3121 3120 3120 3120 3119 3118 3117 3116 3116 3116 3116 3117 3117 3116 3116 3117 3117 3118 3120 3120 3121
3144 3142 3140 3138 3136 3134 3132 3131 3129 3128 3126 3125 3124 3123 3122 3121 3120 3119 3118 3117 3117 3117 3116 3116 3115 3115 3113 3112 3111 3110 3110 3110 3111 3111 3110 3110 3111 3111 3113 3114 3114 3115
3143 3141 3139 3137 3135 3133 3131 3129 3127 3125 3124 3123 3121 3120 3119 3118 3117 3116 3115 3114 3113 3112 3112 3111 3110 3110 3108 3107 3106 3105 3104 3104 3104 3105 3104 3104 3105 3105 3106 3107 3108 3109
3141 3139 3137 3135 3133 3131 3129 3127 3125 3123 3122 3121 3119 3118 3116 3115 3114 3113 3112 3111 3109 3108 3107 3106 3106 3105 3104 3102 3101 3100 3099 3098 3098 3098 3098 3098 3099 3099 3100 3100 3101 3102
3139 3137 3135 3133 3131 3129 3127 3125 3123 3122 3120 3119 3117 3116 3114 3113 3112 3110 3109 3107 3106 3105 3104 3102 3102 3100 3099 3098 3096 3095 3093 3092 3092 3092 3092 3092 3093 3093 3094 3094 3095 3096
3137 3135 3133 3131 3129 3127 3125 3124 3122 3120 3119 3117 3116 3114 3112 3111 3109 3108 3106 3105 3104 3102 3101 3100 3098 3097 3095 3093 3092 3090 3088 3087 3086 3086 3086 3086 3086 3087 3088 3088 3088 3089
3134 3132 3130 3129 3127 3125 3123 3122 3120 3119 3117 3116 3114 3113 3111 3109 3108 3106 3104 3103 3101 3100 3099 3097 3095 3094 3092 3090 3087 3085 3083 3081 3081 3081 3080 3080 3080 3081 3082 3082 3082 3083
3132 3130 3128 3126 3125 3123 3121 3120 3119 3117 3116 3114 3113 3111 3109 3108 3106 3104 3102 3101 3099 3097 3096 3095 3092 3090 3088 3086 3083 3081 3079 3077 3076 3076 3075 3075 3075 3075 3076 3076 3076 3077
3130 3129 3127 3125 3123 3121 3120 3118 3117 3116 3115 3113 3111 3109 3108 3106 3104 3102 3100 3098 3097 3095 3094 3092 3089 3087 3085 3083 3080 3077 3075 3073 3072 3071 3071 3070 3070 3070 3070 3071 3071 3072
3128 3127 3125 3124 3122 3120 3118 3117 3115 3114 3113 3111 3110 3108 3106 3104 3102 3100 3098 3097 3095 3093 3092 3089 3086 3084 3082 3080 3077 3074 3071 3069 3068 3066 3066 3066 3066 3065 3065 3065 3066 3067
3127 3125 3123 3122 3120 3118 3117 3115 3114 3113 3111 3110 3108 3106 3104 3102 3101 3099 3097 3096 3094 3092 3090 3087 3084 3082 3079 3076 3073 3070 3068 3066 3064 3062 3062 3061 3061 3061 3061 3061 3061 3062
3125 3123 3121 3120 3118 3117 3115 3113 3112 3111 3109 3108 3106 3104 3102 3101 3099 3097 3095 3094 3092 3090 3088 3085 3082 3079 3076 3073 3070 3067 3064 3062 3060 3059 3058 3057 3057 3057 3057 3057 3057 3058
3123 3121 3120 3118 3117 3115 3113 3111 3110 3109 3107 3106 3104 3102 3100 3099 3097 3095 3093 3092 3090 3089 3086 3084 3080 3077 3074 3071 3068 3064 3061 3059 3057 3055 3054 3053 3053 3053 3053 3052 3053 3053
3121 3119 3118 3117 3115 3113 3112 3110 3108 3106 3105 3103 3102 3100 3099 3097 3095 3094 3092 3090 3088 3086 3084 3082 3079 3075 3072 3070 3066 3062 3058 3055 3053 3051 3050 3049 3049 3049 3048 3048 3049 3049
3119 3117 3116 3115 3113 3112 3110 3108 3106 3104 3103 3101 3100 3098 3097 3095 3093 3092 3090 3089 3086 3084 3082 3079 3077 3074 3071 3068 3064 3061 3056 3053 3050 3047 3045 3045 3044 3044 3043 3043 3044 3044
3116 3115 3113 3112 3111 3109 3108 3106 3104 3102 3100 3099 3097 3096 3095 3093 3091 3090 3088 3086 3084 3082 3080 3077 3075 3072 3069 3066 3062 3058 3054 3050 3046 3044 3041 3040 3039 3039 3038 3038 3038 3038
3114 3112 3111 3109 3108 3107 3105 3104 3102 3100 3098 3097 3095 3094 3093 3091 3090 3088 3086 3084 3082 3080 3078 3075 3073 3070 3067 3064 3060 3057 3053 3048 3043 3040 3038 3036 3034 3034 3033 3033 3033 3033
3111 3110 3108 3107 3105 3104 3103 3101 3099 3098 3096 3095 3093 3092 3090 3089 3087 3086 3084 3082 3080 3078 3076 3073 3071 3068 3065 3062 3059 3055 3052 3047 3041 3038 3036 3033 3031 3030 3030 3029 3029 3029
3109 3108 3106 3104 3103 3101 3100 3099 3097 3095 3094 3092 3091 3090 3088 3087 3085 3083 3082 3080 3078 3076 3074 3072 3069 3066 3063 3060 3057 3054 3051 3046 3040 3036 3034 3032 3028 3026 3026 3026 3026 3025
3107 3105 3104 3102 3101 3099 3098 3096 3095 3093 3092 3090 3089 3088 3086 3085 3084 3082 3079 3077 3075 3073 3071 3069 3067 3064 3062 3059 3056 3053 3050 3045 3040 3036 3034 3031 3028 3025 3024 3023 3022 3021
3105 3104 3102 3101 3099 3097 3096 3094 3093 3091 3090 3088 3087 3086 3084 3083 3081 3080 3078 3075 3073 3071 3069 3067 3065 3063 3060 3057 3055 3052 3049 3045 3040 3036 3033 3031 3028 3024 3022 3021 3021 3019
3103 3102 3101 3099 3097 3095 3094 3092 3091 3089 3088 3087 3085 3084 3082 3081 3079 3077 3076 3074 3072 3070 3067 3065 3063 3061 3059 3056 3054 3051 3048 3045 3041 3037 3033 3030 3027 3023 3021 3020 3019 3017
3102 3100 3099 3097 3096 3094 3092 3091 3089 3088 3086 3085 3084 3082 3080 3079 3077 3076 3074 3073 3071 3068 3066 3064 3062 3059 3057 3055 3053 3051 3048 3045 3041 3038 3034 3030 3027 3024 3021 3020 3018 3016